Weather History for New York, NY

Change the Weather History Date:

Wednesday, April 17, 2013

  Actual Average Record
Temperature  
Mean Temperature 62 °F 53 °F  
Max Temperature 69 °F 62 °F 94 °F (2002)
Min Temperature 55 °F 45 °F 32 °F (1980)
Degree Days  
Heating Degree Days 3 12  
Month to date heating degree days 234 251  
Since 1 July heating degree days 4181 4387  
Cooling Degree Days 0 0  
Month to date cooling degree days 0 0  
Year to date cooling degree days 0 0  
Growing Degree Days 12 (Base 50)    
Moisture  
Dew Point 43 °F    
Average Humidity 52    
Maximum Humidity 78    
Minimum Humidity 26    
Precipitation  
Precipitation 0.02 in 0.13 in 1.71 in (1954)
Month to date precipitation 1.03 2.37  
Year to date precipitation 9.30 12.27  
Snow  
Snow 0.00 in 0.00 in - ()
Month to date snowfall 0.0 0.4  
Since 1 July snowfall 22.2 26.8  
Snow Depth 0.00 in    
Sea Level Pressure  
Sea Level Pressure 30.19 in    
Wind  
Wind Speed 7 mph (North)    
Max Wind Speed 14 mph    
Max Gust Speed 18 mph    
Visibility 10 miles    
Events Rain    
T = Trace of Precipitation, MM = Missing Value Source: NWS Daily Summary

Daily Weather History Graph

Daily Weather History Graph

Search for Another Location

Airport:

Trip Planner

Search our weather history database for the weather conditions in past years. The results will help you decide how hot, cold, wet, or windy it might be!

Date:

Astronomy

Apr. 17, 2013 Rise Set
Actual Time 6:13 AM EDT 7:37 PM EDT
Civil Twilight 5:44 AM EDT 8:06 PM EDT
Nautical Twilight 5:10 AM EDT 8:40 PM EDT
Astronomical Twilight 4:34 AM EDT 9:16 PM EDT
Moon 11:24 AM EDT (4/17) 1:14 AM EDT (4/17)
Length of Visible Light 14h 21m
Length of Day
13h 24m
Waxing Crescent, 42% of the Moon is Illuminated
Apr 17
Waxing Crescent
Apr 18
First Quarter
Apr 25
Full
May 2
Last Quarter
May 9
New

Hourly Weather History & Observations

Time (EDT) Temp. Dew Point Humidity Pressure Visibility Wind Dir Wind Speed Gust Speed Precip Events Conditions
12:51 AM 59.0 °F 51.1 °F 75% 30.12 in 10.0 mi SSW 6.9 mph - N/A   Overcast
1:51 AM 61.0 °F 51.1 °F 70% 30.12 in 10.0 mi SW 3.5 mph - N/A   Overcast
2:51 AM 62.1 °F 52.0 °F 70% 30.12 in 10.0 mi WSW 9.2 mph - N/A   Overcast
3:47 AM 62.6 °F 53.6 °F 72% 30.11 in 10.0 mi WSW 9.2 mph - N/A   Overcast
3:51 AM 62.1 °F 53.1 °F 72% 30.12 in 10.0 mi SW 8.1 mph - N/A   Overcast
4:51 AM 63.0 °F 54.0 °F 72% 30.12 in 10.0 mi West 9.2 mph - N/A   Overcast
5:51 AM 60.1 °F 53.1 °F 78% 30.11 in 10.0 mi NNW 11.5 mph - N/A   Overcast
6:23 AM 57.2 °F 53.6 °F 88% 30.12 in 10.0 mi North 12.7 mph - 0.01 in Rain Light Rain
6:51 AM 55.9 °F 51.1 °F 84% 30.16 in 10.0 mi NNE 5.8 mph - 0.02 in Rain Light Rain
7:31 AM 55.4 °F 48.2 °F 77% 30.19 in 10.0 mi NNW 9.2 mph - 0.00 in   Overcast
7:51 AM 55.0 °F 46.0 °F 72% 30.21 in 10.0 mi North 11.5 mph - 0.00 in   Overcast
8:14 AM 55.4 °F 44.6 °F 67% 30.21 in 10.0 mi NNE 8.1 mph - N/A   Overcast
8:40 AM 55.4 °F 42.8 °F 63% 30.22 in 10.0 mi North 8.1 mph - N/A   Overcast
8:51 AM 55.9 °F 43.0 °F 62% 30.22 in 10.0 mi North 9.2 mph - N/A   Overcast
9:43 AM 55.4 °F 42.8 °F 63% 30.23 in 10.0 mi NNE 11.5 mph - N/A   Overcast
9:51 AM 55.9 °F 42.1 °F 60% 30.23 in 10.0 mi North 9.2 mph - N/A   Mostly Cloudy
10:51 AM 59.0 °F 41.0 °F 51% 30.22 in 10.0 mi North 6.9 mph - N/A   Scattered Clouds
11:51 AM 61.0 °F 39.9 °F 46% 30.21 in 10.0 mi North 9.2 mph - N/A   Scattered Clouds
12:51 PM 64.0 °F 37.9 °F 38% 30.20 in 10.0 mi NNW 6.9 mph - N/A   Mostly Cloudy
1:51 PM 64.9 °F 37.0 °F 36% 30.19 in 10.0 mi North 6.9 mph - N/A   Mostly Cloudy
2:51 PM 68.0 °F 37.0 °F 32% 30.20 in 10.0 mi North 4.6 mph - N/A   Mostly Cloudy
3:51 PM 66.9 °F 33.1 °F 28% 30.19 in 10.0 mi ENE 8.1 mph - N/A   Mostly Cloudy
4:51 PM 68.0 °F 32.0 °F 26% 30.19 in 10.0 mi ENE 10.4 mph - N/A   Partly Cloudy
5:51 PM 68.0 °F 33.1 °F 27% 30.21 in 10.0 mi ENE 9.2 mph - N/A   Partly Cloudy
6:51 PM 66.9 °F 32.0 °F 27% 30.22 in 10.0 mi ENE 8.1 mph - N/A   Partly Cloudy
7:51 PM 66.0 °F 30.0 °F 26% 30.23 in 10.0 mi ENE 8.1 mph - N/A   Scattered Clouds
8:51 PM 61.0 °F 41.0 °F 48% 30.25 in 10.0 mi South 5.8 mph - N/A   Clear
9:51 PM 57.9 °F 37.0 °F 46% 30.28 in 10.0 mi South 4.6 mph - N/A   Partly Cloudy
10:51 PM 57.9 °F 37.0 °F 46% 30.27 in 10.0 mi South 3.5 mph - N/A   Clear
11:51 PM 57.0 °F 37.0 °F 47% 30.29 in 10.0 mi SSW 3.5 mph - N/A   Clear